Regional Weather Roundup
Issued by NWS

Home | Current Version | Previous Version | Text Only | Print | Product List | Glossary Off
Versions: 1 2 3 4 5 6 7 8 9 10 11 12 13 14 15 16 17 18 19 20 21 22 23 24 25 26 27 28 29 30 31 32 33 34 35 36 37 38 39 40 41 42 43 44 45 46 47 48 49 50

515
ASUS45 KBOU 280907
RWRCO

WEATHER ROUNDUP FOR COLORADO
NATIONAL WEATHER SERVICE DENVER/BOULDER CO
300 AM MDT THU APR 28 2016

NOTE: "FAIR" INDICATES FEW OR NO CLOUDS BELOW 12000 FEET WITH NO
SIGNIFICANT WEATHER AND/OR OBSTRUCTIONS TO VISIBILITY.

COZ001>005-013-030-031-281000-
...NORTHWEST COLORADO...

CITY           SKY/WX    TMP DP  RH WIND       PRES   REMARKS
CRAIG          FAIR      36  31  82 E6        29.79F
HAYDEN         FAIR      34  28  80 E10       29.79F WCI  26
MEEKER         CLOUDY    36  32  85 CALM      29.77F
MOUNT WERNER   NOT AVBL
STEAMBOAT SPGS FAIR      32  29  87 CALM      29.81F
WALDEN         MOCLDY    28  25  86 NW7       29.87F WCI  21
$$

COZ006>008-011-281000-
...WEST CENTRAL VALLEYS...

CITY           SKY/WX    TMP DP  RH WIND       PRES   REMARKS
GRAND JUNCTION MOCLDY    47  39  74 NE5       29.69F
MONTROSE       CLOUDY    44  37  76 CALM      29.75F
EAGLE          CLOUDY    34  30  86 E3        29.83F
RIFLE          CLOUDY    40  35  83 CALM      29.76S
DELTA          NOT AVBL
NUCLA          NOT AVBL
$$

COZ017>023-064>068-281000-
...SOUTHWEST COLORADO...

CITY           SKY/WX    TMP DP  RH WIND       PRES   REMARKS
DURANGO        CLOUDY    43  31  62 N6        29.79S
CORTEZ         CLOUDY    48  36  63 S6        29.74F
PAGOSA SPRINGS CLOUDY    40  30  66 CALM      29.83F
TELLURIDE      CLOUDY    39  29  65 CALM      29.81F
WOLF CREEK PAS NOT AVBL
$$

COZ009-010-012-014-032>034-037-058>063-281000-
...CENTRAL COLORADO...

CITY           SKY/WX    TMP DP  RH WIND       PRES   REMARKS
ASPEN          FAIR      31  26  82 CALM      29.79F
BUENA VISTA    LGT RAIN  36  33  90 S8        29.86F
COPPER MTN     NOT AVBL
BERTHOUD PASS  CLOUDY    18   9  68 SE9       29.92S WCI   6
COTTONWOOD PAS SNOW      34  32  93 E3        29.89F VSB<1/4
GUNNISON       FAIR      37  28  70 N9        29.84F
KREMMLING      FAIR      30  28  93 E3        29.85F
LEADVILLE      CLOUDY    28  27  96 S3        29.86F
MONARCH PASS   CLOUDY    27  23  86 SW7       30.03S WCI  19
SALIDA         CLOUDY    38  36  91 SE8       29.94F
SUNLIGHT       CLOUDY    30  28  93 CALM      29.89F
WILKERSON PASS FOG       27  23  86 S9G17     29.94F VSB 3/4 WCI  17
$$

COZ069>075-281000-
...SAN LUIS VALLEY/SANGRE DE CRISTO MOUNTAINS...

CITY           SKY/WX    TMP DP  RH WIND       PRES   REMARKS
ALAMOSA        CLOUDY    41  32  70 E8        29.83F
LA VETA PASS   LGT SNOW  28  27  93 MISG      29.94F VSB 3/4
SAGUACHE       CLOUDY    37  32  81 CALM      29.86F
$$

COZ035-036-038>040-281000-
...NORTHERN COLORADO FRONT RANGE...

CITY           SKY/WX    TMP DP  RH WIND       PRES   REMARKS
DENVER INTL AP CLOUDY    36  26  67 E8        29.92F
DMNS CITY PARK   N/A     38  26  62 MISG      29.93S
AURORA         CLOUDY    35  28  73 E7        29.93S WCI  30
FRONT RANGE AP NOT AVBL
ERIE MUNI ARPT CLOUDY    38  28  66 SE3       29.93S
BOULDER MUN AP CLOUDY    37  28  70 NE5       29.92F
CENTENNIAL     CLOUDY    36  27  69 E5        29.92S
BROOMFIELD     CLOUDY    37  28  70 E6        29.93S
FORT COLLINS   CLOUDY    37  27  65 E6        29.93F
LONGMONT       CLOUDY    40  29  65 E6        29.95S
$$

COZ041-046-047-076>085-087-088-281000-
...PIKES PEAK/PALMER DIVIDE AND SOUTHERN FOOTHILLS...

CITY           SKY/WX    TMP DP  RH WIND       PRES   REMARKS
COLO. SPRINGS  CLOUDY    38  27  64 NE10      29.91R
A. F. ACADEMY  CLOUDY    36  32  87 N8        29.89S
SCHRIEVER AFB  NOT AVBL
ELLICOTT       NOT AVBL
FALCON         CLOUDY    32  27  81 N9        29.92R WCI  25
FORT CARSON    CLOUDY    39  31  75 E8        29.90S
LIMON          CLOUDY    34  27  75 N7        29.92R WCI  28
MONUMENT HILL  CLOUDY    30  28  93 E6        29.93S WCI  24
TRINIDAD       CLOUDY    44  31  60 W12       29.87F
$$

COZ042>045-048>051-090-091-281000-
...NORTHEAST COLORADO...

CITY           SKY/WX    TMP DP  RH WIND       PRES   REMARKS
GREELEY ARPT   CLOUDY    37  28  70 NE8       29.94F
AKRON          FAIR      30  25  81 NW9       29.92S WCI  22
BURLINGTON     MOCLDY    36  30  79 N8        29.91F
WRAY           NOT AVBL
STERLING       FAIR      32  30  93 NW5       29.93R WCI  27
HOLYOKE        NOT AVBL
FORT MORGAN    MOCLDY    30  27  87 NW3       29.94S
$$

COZ086-089-092>099-281000-
...SOUTHEAST COLORADO...

CITY           SKY/WX    TMP DP  RH WIND       PRES   REMARKS
PUEBLO         MOCLDY    46  28  49 E12       29.91R
LA JUNTA       CLOUDY    45  29  53 E12       29.92R
LAMAR          MOCLDY    42  32  67 E6        29.91R
SPRINGFIELD      N/A     36  31  82 N7        29.91R
$$




USA.gov is the U.S. government's official web portal to all federal, state and local government web resources and services.